Weather History for Eau Claire, WI

Change the Weather History Date:

Wednesday, March 6, 2013

  Actual Average Record
Temperature  
Mean Temperature 20 °F 27 °F  
Max Temperature 30 °F 36 °F 73 °F (2000)
Min Temperature 9 °F 18 °F -16 °F (1920)
Degree Days  
Heating Degree Days 45 38  
Month to date heating degree days 268 235  
Since 1 July heating degree days 6127 6256  
Cooling Degree Days 0 0  
Month to date cooling degree days 0 0  
Year to date cooling degree days 0 0  
Moisture  
Dew Point 13 °F    
Average Humidity 71    
Maximum Humidity 92    
Minimum Humidity 50    
Precipitation  
Precipitation T in 0.04 in 1.11 in (1908)
Month to date precipitation 0.36 0.25  
Year to date precipitation 2.93 1.95  
Snow  
Snow T in 0.30 in 6.00 in (1900)
Month to date snowfall 5.2 1.8  
Since 1 July snowfall 47.7 38.1  
Snow Depth 13.00 in    
Sea Level Pressure  
Sea Level Pressure 30.35 in    
Wind  
Wind Speed 7 mph (NW)    
Max Wind Speed 15 mph    
Max Gust Speed 20 mph    
Visibility 10 miles    
Events      
T = Trace of Precipitation, MM = Missing Value Source: NWS Daily Summary

Daily Weather History Graph

Daily Weather History Graph

Search for Another Location

Airport:

Trip Planner

Search our weather history database for the weather conditions in past years. The results will help you decide how hot, cold, wet, or windy it might be!

Date:

Astronomy

Mar. 06, 2013 Rise Set
Actual Time 6:34 AM CST 6:00 PM CST
Civil Twilight 6:05 AM CST 6:29 PM CST
Nautical Twilight 5:31 AM CST 7:03 PM CST
Astronomical Twilight 4:57 AM CST 7:37 PM CST
Moon 2:54 AM CST (3/6) 12:32 PM CST (3/6)
Length of Visible Light 12h 24m
Length of Day
11h 26m
Waning Crescent, 29% of the Moon is Illuminated
Mar 6
Waning Crescent
Mar 11
New
Mar 19
First Quarter
Mar 27
Full
Apr 2
Last Quarter

Hourly Weather History & Observations

Time (CST) Temp. Windchill Dew Point Humidity Pressure Visibility Wind Dir Wind Speed Gust Speed Precip Events Conditions
12:35 AM 24.8 °F 16.9 °F 17.6 °F 74% 30.21 in 10.0 mi North 6.9 mph - N/A   Overcast
12:56 AM 24.1 °F 15.2 °F 18.0 °F 77% 30.27 in 10.0 mi NNW 8.1 mph - N/A   Overcast
1:56 AM 24.1 °F 17.0 °F 18.0 °F 77% 30.29 in 10.0 mi North 5.8 mph - N/A   Overcast
2:56 AM 24.1 °F 15.2 °F 18.0 °F 77% 30.30 in 10.0 mi NNW 8.1 mph - N/A   Overcast
3:56 AM 21.9 °F 10.4 °F 16.0 °F 78% 30.32 in 10.0 mi NNW 11.5 mph - N/A   Overcast
4:56 AM 21.0 °F 11.4 °F 15.1 °F 78% 30.34 in 10.0 mi NNW 8.1 mph - N/A   Overcast
5:56 AM 21.0 °F 9.9 °F 15.1 °F 78% 30.35 in 10.0 mi NW 10.4 mph - N/A   Overcast
6:56 AM 19.9 °F 9.3 °F 14.0 °F 78% 30.37 in 10.0 mi NNW 9.2 mph - N/A   Overcast
7:56 AM 21.0 °F 11.4 °F 15.1 °F 78% 30.39 in 10.0 mi WNW 8.1 mph - N/A   Overcast
8:56 AM 21.0 °F 12.4 °F 14.0 °F 74% 30.40 in 10.0 mi NW 6.9 mph - N/A   Overcast
9:56 AM 23.0 °F 13.9 °F 14.0 °F 68% 30.40 in 10.0 mi North 8.1 mph - N/A   Mostly Cloudy
10:09 AM 24.8 °F 14.0 °F 14.0 °F 64% 30.35 in 10.0 mi North 11.5 mph - N/A   Scattered Clouds
10:56 AM 24.1 °F 12.0 °F 12.9 °F 62% 30.40 in 10.0 mi NW 13.8 mph - N/A   Clear
11:56 AM 25.0 °F 18.1 °F 12.9 °F 60% 30.38 in 10.0 mi Variable 5.8 mph - 0.03 in   Clear
12:56 PM 27.0 °F 17.3 °F 12.9 °F 56% 30.36 in 10.0 mi North 10.4 mph - 0.08 in   Clear
1:56 PM 27.0 °F 18.7 °F 14.0 °F 58% 30.35 in 10.0 mi NW 8.1 mph - 0.09 in   Clear
2:56 PM 28.9 °F 21.1 °F 12.9 °F 51% 30.34 in 10.0 mi NW 8.1 mph - 0.06 in   Clear
4:56 PM 28.0 °F 20.8 °F 12.9 °F 53% 30.33 in 10.0 mi North 6.9 mph - 0.01 in   Clear
5:56 PM 23.0 °F 15.8 °F 12.9 °F 65% 30.35 in 10.0 mi WNW 5.8 mph - N/A   Clear
6:56 PM 21.0 °F - 12.9 °F 71% 30.36 in 10.0 mi Calm Calm - N/A   Clear
7:56 PM 18.0 °F 11.1 °F 10.0 °F 71% 30.37 in 10.0 mi WSW 4.6 mph - N/A   Clear
8:56 PM 15.1 °F 7.7 °F 10.0 °F 80% 30.38 in 10.0 mi WSW 4.6 mph - N/A   Clear
9:56 PM 12.0 °F - 8.1 °F 84% 30.37 in 10.0 mi Calm Calm - N/A   Clear
10:56 PM 10.9 °F 2.9 °F 8.1 °F 88% 30.38 in 10.0 mi SW 4.6 mph - N/A   Clear
11:56 PM 10.9 °F - 7.0 °F 84% 30.39 in 7.0 mi Calm Calm - N/A   Clear